TimeEST,TemperatureF,Dew PointF,Humidity,Sea Level PressureIn,VisibilityMPH,Wind Direction,Wind SpeedMPH,Gust SpeedMPH,PrecipitationIn,Events,Conditions,WindDirDegrees,DateUTC
12:53 AM,60.1,53.1,78,30.18,10.0,ENE,5.8,-,N/A,,Clear,70,2012-01-09 05:53:00
1:53 AM,59.0,53.1,81,30.17,10.0,ENE,3.5,-,N/A,,Clear,60,2012-01-09 06:53:00
2:53 AM,57.0,53.1,87,30.15,10.0,ENE,3.5,-,N/A,,Clear,60,2012-01-09 07:53:00
3:53 AM,57.0,53.1,87,30.15,10.0,NE,4.6,-,N/A,,Clear,50,2012-01-09 08:53:00
4:53 AM,57.0,53.1,87,30.14,10.0,NE,4.6,-,N/A,,Clear,50,2012-01-09 09:53:00
5:53 AM,57.0,53.1,87,30.16,10.0,ENE,3.5,-,N/A,,Clear,70,2012-01-09 10:53:00
6:53 AM,55.4,53.6,94,30.17,10.0,NE,4.6,-,N/A,,Clear,50,2012-01-09 11:53:00
7:53 AM,57.9,55.0,90,30.17,7.0,East,5.8,-,N/A,,Clear,80,2012-01-09 12:53:00
8:53 AM,64.0,57.9,80,30.19,10.0,ENE,5.8,-,N/A,,Clear,60,2012-01-09 13:53:00
9:53 AM,71.1,59.0,66,30.21,10.0,East,8.1,-,N/A,,Clear,80,2012-01-09 14:53:00
10:53 AM,75.2,60.8,61,30.20,10.0,ESE,10.4,-,N/A,,Partly Cloudy,110,2012-01-09 15:53:00
11:53 AM,77.0,57.9,52,30.17,10.0,East,10.4,-,N/A,,Scattered Clouds,90,2012-01-09 16:53:00
12:53 PM,78.1,57.0,48,30.13,10.0,SE,9.2,-,N/A,,Scattered Clouds,130,2012-01-09 17:53:00
1:53 PM,78.1,55.9,46,30.11,10.0,Variable,4.6,-,N/A,,Partly Cloudy,0,2012-01-09 18:53:00
2:53 PM,79.0,57.9,48,30.09,10.0,Variable,6.9,-,N/A,,Mostly Cloudy,0,2012-01-09 19:53:00
3:53 PM,77.0,59.0,54,30.09,10.0,West,6.9,-,N/A,,Partly Cloudy,270,2012-01-09 20:53:00
4:53 PM,73.0,61.0,66,30.09,10.0,SW,8.1,-,N/A,,Partly Cloudy,220,2012-01-09 21:53:00
5:53 PM,70.0,62.1,76,30.11,10.0,SSW,5.8,-,N/A,,Clear,210,2012-01-09 22:53:00
6:53 PM,68.0,61.0,78,30.11,10.0,Calm,Calm,-,N/A,,Clear,0,2012-01-09 23:53:00
7:53 PM,66.9,61.0,81,30.11,10.0,Calm,Calm,-,N/A,,Clear,0,2012-01-10 00:53:00
8:53 PM,64.9,61.0,87,30.12,10.0,ENE,3.5,-,N/A,,Partly Cloudy,60,2012-01-10 01:53:00
9:53 PM,64.0,60.1,87,30.12,10.0,Calm,Calm,-,N/A,,Clear,0,2012-01-10 02:53:00
10:53 PM,63.0,60.1,90,30.12,9.0,Calm,Calm,-,N/A,,Clear,0,2012-01-10 03:53:00
11:53 PM,62.1,59.0,90,30.10,8.0,Calm,Calm,-,N/A,,Clear,0,2012-01-10 04:53:00